AUA128 EDDF-LOWW

Flight info

Callsign AUA128
Flight time 1h 12m
Altitude 31000
Route SULUS7S/18 SULUS Z650 VEMUT/N0459F290 DCT BUDEX BUDEX2W
Aircraft A319/M-SDE3FGHIRWY/LB1

Departure

Time 2026-05-06 16:50
Airport Frankfurt Main Airport (EDDF)

Arrival

Time 2026-05-06 18:03
Airport Vienna International Airport (LOWW)
Time Latitude Longitude Altitude Speed Heading
2026-05-06 16:37 50.04951 8.57792 363 ft 0 kts 23°
2026-05-06 16:43 50.04938 8.57784 365 ft 3 kts 26°
2026-05-06 16:44 50.04920 8.57770 361 ft 3 kts 24°
2026-05-06 16:44 50.04902 8.57758 364 ft 3 kts 22°
2026-05-06 16:44 50.04884 8.57745 359 ft 3 kts 43°
2026-05-06 16:44 50.04877 8.57735 363 ft 2 kts 110°
2026-05-06 16:45 50.04878 8.57731 362 ft 1 kts 113°
2026-05-06 16:47 50.04877 8.57734 363 ft 4 kts 113°
2026-05-06 16:47 50.04847 8.57834 356 ft 12 kts 121°
2026-05-06 16:48 50.04758 8.57917 355 ft 20 kts 163°
2026-05-06 16:48 50.04641 8.58000 348 ft 17 kts 158°
2026-05-06 16:48 50.04570 8.58094 337 ft 15 kts 96°
2026-05-06 16:48 50.04606 8.58277 334 ft 20 kts 67°
2026-05-06 16:49 50.04655 8.58481 333 ft 20 kts 71°
2026-05-06 16:49 50.04607 8.58583 325 ft 12 kts 163°
2026-05-06 16:49 50.04528 8.58618 325 ft 11 kts 187°
2026-05-06 16:49 50.04458 8.58463 330 ft 42 kts 251°
2026-05-06 16:50 50.04269 8.57665 330 ft 112 kts 250°
2026-05-06 16:50 50.03934 8.56254 359 ft 165 kts 251°
2026-05-06 16:50 50.03543 8.54564 957 ft 165 kts 251°
2026-05-06 16:50 50.03137 8.52883 1649 ft 170 kts 249°
2026-05-06 16:51 50.02645 8.51073 2102 ft 189 kts 236°
2026-05-06 16:51 50.01529 8.49903 2569 ft 206 kts 196°
2026-05-06 16:51 50.00107 8.49285 3153 ft 218 kts 194°
2026-05-06 16:51 49.98611 8.49282 4085 ft 218 kts 163°
2026-05-06 16:52 49.97347 8.50586 4986 ft 225 kts 131°
2026-05-06 16:52 49.96612 8.52748 5911 ft 227 kts 116°
2026-05-06 16:52 49.95914 8.55005 6579 ft 242 kts 119°
2026-05-06 16:52 49.95065 8.57413 7023 ft 266 kts 121°
2026-05-06 16:53 49.94273 8.60091 7728 ft 279 kts 108°
2026-05-06 16:53 49.93979 8.63101 8637 ft 285 kts 96°
2026-05-06 16:53 49.93732 8.66167 9583 ft 288 kts 105°
2026-05-06 16:53 49.93012 8.69076 10375 ft 294 kts 120°
2026-05-06 16:54 49.91744 8.71688 10696 ft 316 kts 137°
2026-05-06 16:54 49.89926 8.73856 10796 ft 344 kts 145°
2026-05-06 16:54 49.88129 8.76503 10813 ft 368 kts 128°
2026-05-06 16:54 49.86894 8.80016 10812 ft 374 kts 116°
2026-05-06 16:55 49.85707 8.83607 10814 ft 374 kts 119°
2026-05-06 16:55 49.84428 8.87112 10814 ft 373 kts 121°
2026-05-06 16:55 49.83108 8.90576 10811 ft 373 kts 122°
2026-05-06 16:55 49.81784 8.94030 10812 ft 373 kts 121°
2026-05-06 16:56 49.80472 8.97495 10811 ft 373 kts 121°
2026-05-06 16:56 49.79175 9.00977 10816 ft 373 kts 121°
2026-05-06 16:56 49.77892 9.04469 10815 ft 373 kts 121°
2026-05-06 16:56 49.76655 9.07996 10802 ft 375 kts 116°
2026-05-06 16:57 49.75786 9.11748 10806 ft 377 kts 105°
2026-05-06 16:57 49.75178 9.15693 10811 ft 377 kts 104°
2026-05-06 16:57 49.74560 9.19633 10812 ft 377 kts 105°
2026-05-06 16:57 49.73928 9.23562 10811 ft 377 kts 105°
2026-05-06 16:58 49.73287 9.27489 10812 ft 377 kts 105°
2026-05-06 16:58 49.72642 9.31413 10813 ft 377 kts 105°
2026-05-06 16:58 49.71998 9.35339 10812 ft 377 kts 105°
2026-05-06 16:58 49.71354 9.39264 10813 ft 377 kts 105°
2026-05-06 16:59 49.70709 9.43193 10857 ft 380 kts 105°
2026-05-06 16:59 49.70054 9.47183 11705 ft 380 kts 105°
2026-05-06 16:59 49.69422 9.51044 13207 ft 362 kts 106°
2026-05-06 16:59 49.68808 9.54774 14306 ft 357 kts 107°
2026-05-06 17:00 49.68191 9.58484 15093 ft 358 kts 107°
2026-05-06 17:00 49.67573 9.62222 15828 ft 361 kts 106°
2026-05-06 17:00 49.67244 9.66092 16539 ft 368 kts 94°
2026-05-06 17:00 49.67433 9.70062 17245 ft 375 kts 82°
2026-05-06 17:01 49.68086 9.73997 17942 ft 381 kts 77°
2026-05-06 17:01 49.68801 9.77952 18558 ft 384 kts 77°
2026-05-06 17:01 49.69514 9.81951 19166 ft 388 kts 77°
2026-05-06 17:01 49.70228 9.85991 19757 ft 392 kts 77°
2026-05-06 17:02 49.70946 9.90074 20350 ft 396 kts 77°
2026-05-06 17:02 49.71854 9.94118 20930 ft 403 kts 68°
2026-05-06 17:02 49.73230 9.97917 21475 ft 409 kts 57°
2026-05-06 17:02 49.74902 10.01508 22054 ft 413 kts 55°
2026-05-06 17:03 49.76593 10.05126 22651 ft 417 kts 54°
2026-05-06 17:03 49.78295 10.08783 23237 ft 420 kts 55°
2026-05-06 17:03 49.80005 10.12479 23728 ft 424 kts 55°
2026-05-06 17:03 49.81723 10.16208 24196 ft 427 kts 55°
2026-05-06 17:04 49.83450 10.19965 24661 ft 430 kts 55°
2026-05-06 17:04 49.85186 10.23748 25125 ft 433 kts 55°
2026-05-06 17:04 49.86935 10.27565 25568 ft 436 kts 55°
2026-05-06 17:04 49.88693 10.31408 26003 ft 439 kts 56°
2026-05-06 17:05 49.90463 10.35286 26443 ft 442 kts 56°
2026-05-06 17:05 49.92242 10.39187 26871 ft 445 kts 56°
2026-05-06 17:05 49.94033 10.43120 27296 ft 448 kts 56°
2026-05-06 17:05 49.95838 10.47083 27712 ft 451 kts 56°
2026-05-06 17:06 49.97064 10.49777 27970 ft 454 kts 56°
2026-05-06 17:06 49.98894 10.53804 28361 ft 457 kts 56°
2026-05-06 17:06 50.00728 10.57855 28787 ft 460 kts 56°
2026-05-06 17:06 50.02563 10.61944 29189 ft 462 kts 58°
2026-05-06 17:07 50.04084 10.66352 29595 ft 463 kts 69°
2026-05-06 17:07 50.05080 10.71110 29964 ft 463 kts 80°
2026-05-06 17:07 50.05531 10.76063 30280 ft 462 kts 90°
2026-05-06 17:07 50.05429 10.81042 30585 ft 460 kts 101°
2026-05-06 17:08 50.04789 10.85898 30754 ft 457 kts 111°
2026-05-06 17:08 50.02806 10.95270 30775 ft 456 kts 112°
2026-05-06 17:09 50.00810 11.04628 30775 ft 456 kts 112°
2026-05-06 17:09 49.98822 11.13952 31174 ft 460 kts 112°
2026-05-06 17:09 49.97810 11.18677 31490 ft 462 kts 112°
2026-05-06 17:10 49.96793 11.23420 31887 ft 463 kts 112°
2026-05-06 17:10 49.95782 11.28159 32331 ft 462 kts 112°
2026-05-06 17:10 49.94776 11.32899 32765 ft 462 kts 112°
2026-05-06 17:10 49.93773 11.37631 33193 ft 462 kts 112°
2026-05-06 17:11 49.92774 11.42369 33645 ft 462 kts 112°
2026-05-06 17:11 49.91835 11.47140 34022 ft 462 kts 111°
2026-05-06 17:11 49.90954 11.51931 34401 ft 462 kts 110°
2026-05-06 17:11 49.90102 11.56742 34690 ft 463 kts 109°
2026-05-06 17:12 49.89259 11.61541 34765 ft 457 kts 110°
2026-05-06 17:12 49.87871 11.71078 34767 ft 455 kts 102°
2026-05-06 17:13 49.87022 11.80773 34774 ft 454 kts 102°
2026-05-06 17:13 49.86154 11.90458 34769 ft 454 kts 102°
2026-05-06 17:14 49.85276 12.00147 34773 ft 454 kts 102°
2026-05-06 17:14 49.84403 12.09827 34764 ft 454 kts 102°
2026-05-06 17:15 49.83524 12.19503 34747 ft 453 kts 102°
2026-05-06 17:15 49.82640 12.29166 34740 ft 453 kts 102°
2026-05-06 17:16 49.81753 12.38829 34735 ft 453 kts 102°
2026-05-06 17:16 49.79952 12.48025 34735 ft 443 kts 121°
2026-05-06 17:17 49.76682 12.55969 34737 ft 437 kts 130°
2026-05-06 17:17 49.73225 12.63704 34733 ft 437 kts 129°
2026-05-06 17:18 49.69779 12.71445 34718 ft 437 kts 129°
2026-05-06 17:18 49.66867 12.79613 34750 ft 440 kts 108°
2026-05-06 17:19 49.65610 12.88872 34743 ft 441 kts 105°
2026-05-06 17:19 49.64430 12.98162 34743 ft 441 kts 105°
2026-05-06 17:20 49.63254 13.07441 34751 ft 441 kts 105°
2026-05-06 17:20 49.62084 13.16715 34745 ft 440 kts 105°
2026-05-06 17:21 49.60915 13.25982 34749 ft 440 kts 105°
2026-05-06 17:21 49.59747 13.35252 34748 ft 440 kts 105°
2026-05-06 17:22 49.58578 13.44516 34752 ft 441 kts 105°
2026-05-06 17:22 49.57409 13.53783 34746 ft 441 kts 105°
2026-05-06 17:22 49.56824 13.58417 34867 ft 441 kts 106°
2026-05-06 17:23 49.56286 13.63093 34744 ft 444 kts 105°
2026-05-06 17:23 49.55294 13.72472 34722 ft 444 kts 105°
2026-05-06 17:24 49.54301 13.81866 34716 ft 445 kts 105°
2026-05-06 17:24 49.53575 13.86445 34711 ft 435 kts 118°
2026-05-06 17:24 49.52163 13.90468 34715 ft 421 kts 134°
2026-05-06 17:24 49.50200 13.93697 34710 ft 407 kts 149°
2026-05-06 17:25 49.47853 13.95997 34713 ft 395 kts 161°
2026-05-06 17:25 49.42869 13.99570 34706 ft 397 kts 162°
2026-05-06 17:26 49.37835 14.03156 34181 ft 400 kts 162°
2026-05-06 17:26 49.35313 14.04952 33733 ft 399 kts 163°
2026-05-06 17:26 49.32796 14.06745 33212 ft 399 kts 162°
2026-05-06 17:26 49.30292 14.08532 32692 ft 396 kts 162°
2026-05-06 17:27 49.27807 14.10308 32190 ft 392 kts 162°
2026-05-06 17:27 49.25342 14.12071 31688 ft 390 kts 162°
2026-05-06 17:27 49.22890 14.13820 31148 ft 388 kts 162°
2026-05-06 17:27 49.20442 14.15558 30619 ft 390 kts 162°
2026-05-06 17:28 49.17912 14.17333 30095 ft 408 kts 162°
2026-05-06 17:28 49.15312 14.19152 29548 ft 412 kts 161°
2026-05-06 17:28 49.12713 14.20983 28950 ft 410 kts 161°
2026-05-06 17:28 49.10133 14.22816 28370 ft 407 kts 161°
2026-05-06 17:29 49.07578 14.24637 27742 ft 403 kts 162°
2026-05-06 17:29 49.05044 14.26438 27186 ft 399 kts 162°
2026-05-06 17:29 49.02534 14.28211 26640 ft 396 kts 162°
2026-05-06 17:29 49.00047 14.29958 26106 ft 392 kts 162°
2026-05-06 17:30 48.97586 14.31728 25574 ft 392 kts 158°
2026-05-06 17:30 48.95289 14.33986 25058 ft 396 kts 148°
2026-05-06 17:30 48.93252 14.36845 24545 ft 402 kts 139°
2026-05-06 17:30 48.91506 14.40180 24051 ft 403 kts 134°
2026-05-06 17:31 48.89819 14.43561 23560 ft 400 kts 134°
2026-05-06 17:31 48.88140 14.46912 23040 ft 397 kts 134°
2026-05-06 17:31 48.86467 14.50236 22469 ft 395 kts 134°
2026-05-06 17:31 48.84797 14.53538 21910 ft 393 kts 134°
2026-05-06 17:32 48.83132 14.56819 21358 ft 392 kts 134°
2026-05-06 17:32 48.81471 14.60082 20793 ft 390 kts 134°
2026-05-06 17:32 48.79815 14.63332 20261 ft 388 kts 134°
2026-05-06 17:32 48.78169 14.66560 19742 ft 386 kts 134°
2026-05-06 17:33 48.76530 14.69770 19229 ft 384 kts 134°
2026-05-06 17:33 48.74921 14.72920 18735 ft 382 kts 134°
2026-05-06 17:33 48.73297 14.76095 18238 ft 380 kts 134°
2026-05-06 17:33 48.71683 14.79248 17711 ft 378 kts 134°
2026-05-06 17:34 48.70077 14.82385 17149 ft 376 kts 134°
2026-05-06 17:34 48.68487 14.85507 16599 ft 374 kts 133°
2026-05-06 17:34 48.67141 14.88889 16057 ft 378 kts 121°
2026-05-06 17:34 48.65970 14.92434 15524 ft 376 kts 121°
2026-05-06 17:35 48.64813 14.95955 15076 ft 371 kts 121°
2026-05-06 17:35 48.63678 14.99417 14712 ft 364 kts 121°
2026-05-06 17:35 48.62559 15.02820 14348 ft 359 kts 120°
2026-05-06 17:36 48.60354 15.09485 13633 ft 352 kts 120°
2026-05-06 17:36 48.59258 15.12778 13249 ft 351 kts 120°
2026-05-06 17:36 48.58123 15.16163 12853 ft 372 kts 120°
2026-05-06 17:36 48.56941 15.19683 12461 ft 378 kts 120°
2026-05-06 17:37 48.55772 15.23182 12079 ft 368 kts 120°
2026-05-06 17:37 48.54636 15.26592 11693 ft 359 kts 119°
2026-05-06 17:37 48.53528 15.29922 11317 ft 351 kts 119°
2026-05-06 17:37 48.52441 15.33187 10931 ft 345 kts 120°
2026-05-06 17:38 48.51375 15.36381 10563 ft 338 kts 120°
2026-05-06 17:38 48.50326 15.39518 10199 ft 333 kts 120°
2026-05-06 17:38 48.49275 15.42647 9843 ft 339 kts 120°
2026-05-06 17:38 48.48200 15.45828 9480 ft 341 kts 120°
2026-05-06 17:39 48.47123 15.49013 9087 ft 341 kts 120°
2026-05-06 17:39 48.46048 15.52192 8700 ft 341 kts 120°
2026-05-06 17:39 48.44961 15.55408 8419 ft 355 kts 120°
2026-05-06 17:39 48.43818 15.58783 8168 ft 366 kts 120°
2026-05-06 17:40 48.42660 15.62198 7911 ft 367 kts 120°
2026-05-06 17:40 48.41502 15.65617 7661 ft 366 kts 120°
2026-05-06 17:40 48.40352 15.69020 7398 ft 364 kts 119°
2026-05-06 17:40 48.39196 15.72424 7155 ft 367 kts 119°
2026-05-06 17:41 48.38018 15.75884 6909 ft 372 kts 119°
2026-05-06 17:41 48.36840 15.79348 6665 ft 372 kts 120°
2026-05-06 17:41 48.35667 15.82790 6431 ft 371 kts 119°
2026-05-06 17:41 48.34492 15.86234 6203 ft 371 kts 119°
2026-05-06 17:42 48.33312 15.89687 5949 ft 372 kts 120°
2026-05-06 17:42 48.32133 15.93129 5701 ft 370 kts 120°
2026-05-06 17:42 48.30956 15.96557 5449 ft 369 kts 120°
2026-05-06 17:42 48.29783 15.99972 5209 ft 366 kts 120°
2026-05-06 17:43 48.28619 16.03355 5000 ft 364 kts 121°
2026-05-06 17:43 48.27459 16.06719 4965 ft 362 kts 121°
2026-05-06 17:43 48.26304 16.10077 4984 ft 362 kts 120°
2026-05-06 17:43 48.25157 16.13494 4996 ft 362 kts 120°
2026-05-06 17:44 48.24075 16.16786 4992 ft 338 kts 120°
2026-05-06 17:44 48.23092 16.19824 4996 ft 311 kts 120°
2026-05-06 17:44 48.22193 16.22646 4978 ft 290 kts 120°
2026-05-06 17:44 48.21333 16.25330 4691 ft 280 kts 120°
2026-05-06 17:45 48.20504 16.27908 4330 ft 269 kts 121°
2026-05-06 17:45 48.19710 16.30373 3976 ft 257 kts 121°
2026-05-06 17:45 48.18951 16.32729 3636 ft 245 kts 122°
2026-05-06 17:45 48.18224 16.34983 3312 ft 235 kts 122°
2026-05-06 17:46 48.17530 16.37134 3009 ft 224 kts 122°
2026-05-06 17:46 48.17087 16.38507 2798 ft 218 kts 122°
2026-05-06 17:46 48.16442 16.40503 2510 ft 208 kts 122°
2026-05-06 17:46 48.15834 16.42384 2253 ft 194 kts 123°
2026-05-06 17:47 48.15268 16.44134 1962 ft 181 kts 123°
2026-05-06 17:47 48.14736 16.45778 1711 ft 168 kts 124°
2026-05-06 17:47 48.14250 16.47286 1493 ft 152 kts 124°
2026-05-06 17:47 48.13802 16.48663 1298 ft 139 kts 124°
2026-05-06 17:48 48.13398 16.49915 1199 ft 136 kts 123°
2026-05-06 17:48 48.13001 16.51175 1904 ft 134 kts 125°
2026-05-06 17:48 48.12588 16.52523 2274 ft 156 kts 127°
2026-05-06 17:48 48.12131 16.54134 2714 ft 178 kts 124°
2026-05-06 17:49 48.11625 16.55910 3228 ft 193 kts 124°
2026-05-06 17:49 48.11065 16.57839 3702 ft 211 kts 123°
2026-05-06 17:49 48.10465 16.59881 4344 ft 219 kts 122°
2026-05-06 17:49 48.10225 16.62207 4976 ft 242 kts 85°
2026-05-06 17:50 48.11018 16.64521 5546 ft 265 kts 46°
2026-05-06 17:50 48.12559 16.65999 6042 ft 258 kts 17°
2026-05-06 17:50 48.14272 16.66616 6038 ft 249 kts
2026-05-06 17:50 48.15963 16.67054 5997 ft 245 kts
2026-05-06 17:51 48.17651 16.67453 6001 ft 246 kts
2026-05-06 17:51 48.19320 16.67625 6017 ft 241 kts 345°
2026-05-06 17:51 48.20815 16.66646 6035 ft 229 kts 319°
2026-05-06 17:51 48.22107 16.65257 6037 ft 228 kts 316°
2026-05-06 17:52 48.23358 16.63855 6026 ft 227 kts 316°
2026-05-06 17:52 48.24660 16.62364 6084 ft 253 kts 315°
2026-05-06 17:52 48.26074 16.60623 6064 ft 266 kts 308°
2026-05-06 17:52 48.27149 16.58416 6017 ft 261 kts 296°
2026-05-06 17:53 48.28122 16.56112 6010 ft 261 kts 295°
2026-05-06 17:53 48.29088 16.53798 6009 ft 262 kts 295°
2026-05-06 17:53 48.29804 16.51331 6026 ft 256 kts 283°
2026-05-06 17:53 48.30295 16.48771 6009 ft 255 kts 281°
2026-05-06 17:54 48.30763 16.46177 6002 ft 253 kts 281°
2026-05-06 17:54 48.31209 16.43662 6005 ft 252 kts 280°
2026-05-06 17:54 48.31443 16.41068 5762 ft 252 kts 267°
2026-05-06 17:54 48.31444 16.38441 5287 ft 251 kts 265°
2026-05-06 17:55 48.31426 16.35833 5023 ft 245 kts 265°
2026-05-06 17:55 48.31418 16.33359 4991 ft 228 kts 265°
2026-05-06 17:55 48.31404 16.31032 4995 ft 222 kts 262°
2026-05-06 17:55 48.30914 16.28808 5004 ft 220 kts 239°
2026-05-06 17:56 48.30128 16.26864 4998 ft 217 kts 236°
2026-05-06 17:56 48.29330 16.24970 4992 ft 217 kts 235°
2026-05-06 17:56 48.28514 16.23043 4994 ft 218 kts 236°
2026-05-06 17:56 48.27696 16.21142 4999 ft 217 kts 235°
2026-05-06 17:57 48.26716 16.19450 4999 ft 216 kts 213°
2026-05-06 17:57 48.25287 16.18797 4997 ft 220 kts 182°
2026-05-06 17:57 48.23800 16.19370 4996 ft 229 kts 154°
2026-05-06 17:57 48.22674 16.21108 4997 ft 241 kts 124°
2026-05-06 17:58 48.21924 16.23389 4913 ft 246 kts 120°
2026-05-06 17:58 48.21206 16.25702 4648 ft 244 kts 120°
2026-05-06 17:58 48.20476 16.27990 4328 ft 243 kts 121°
2026-05-06 17:58 48.19744 16.30262 4001 ft 242 kts 121°
2026-05-06 17:59 48.19016 16.32522 3665 ft 239 kts 122°
2026-05-06 17:59 48.18303 16.34736 3344 ft 232 kts 121°
2026-05-06 17:59 48.17619 16.36860 3042 ft 221 kts 122°
2026-05-06 17:59 48.16964 16.38888 2751 ft 211 kts 122°
2026-05-06 18:00 48.16341 16.40817 2464 ft 199 kts 123°
2026-05-06 18:00 48.15763 16.42608 2206 ft 183 kts 122°
2026-05-06 18:00 48.15228 16.44260 1955 ft 171 kts 125°
2026-05-06 18:00 48.14729 16.45803 1708 ft 158 kts 125°
2026-05-06 18:01 48.14277 16.47205 1505 ft 140 kts 124°
2026-05-06 18:01 48.13867 16.48470 1304 ft 128 kts 124°
2026-05-06 18:01 48.13483 16.49648 1149 ft 124 kts 123°
2026-05-06 18:01 48.13100 16.50824 961 ft 125 kts 118°
2026-05-06 18:02 48.12722 16.51992 805 ft 125 kts 119°
2026-05-06 18:02 48.12342 16.53153 660 ft 125 kts 119°
2026-05-06 18:02 48.11982 16.54268 609 ft 105 kts 117°
2026-05-06 18:02 48.11712 16.55086 618 ft 67 kts 115°
2026-05-06 18:03 48.11548 16.55593 623 ft 32 kts 114°
2026-05-06 18:03 48.11502 16.55872 618 ft 27 kts 94°
2026-05-06 18:03 48.11512 16.56097 618 ft 0 kts 71°
2026-05-06 18:04 48.11522 16.56117 620 ft 5 kts 49°
2026-05-06 18:04 48.11571 16.56161 620 ft 12 kts 28°
2026-05-06 18:04 48.11662 16.56241 615 ft 17 kts 34°
2026-05-06 18:05 48.11757 16.56333 614 ft 9 kts 45°
2026-05-06 18:05 48.11753 16.56400 612 ft 9 kts 112°
2026-05-06 18:05 48.11721 16.56495 608 ft 10 kts 118°
2026-05-06 18:05 48.11688 16.56591 606 ft 11 kts 117°
2026-05-06 18:06 48.11652 16.56699 610 ft 12 kts 115°
2026-05-06 18:06 48.11628 16.56788 615 ft 6 kts 87°
2026-05-06 18:06 48.11662 16.56826 605 ft 8 kts 26°
2026-05-06 18:06 48.11697 16.56851 612 ft 0 kts 26°